Regional Weather Roundup
Issued by NWS Grand Forks, ND

Home | Current Version | Previous Version | Text Only | Print | Product List | Glossary Off
Versions: 1 2 3 4 5 6 7 8 9 10 11 12 13 14 15 16 17 18 19 20 21 22 23 24 25 26 27 28 29 30 31 32 33 34 35 36 37 38 39 40 41 42 43 44 45 46 47 48 49 50

000
ASUS43 KFGF 191110
RWRFGF
PRAIRIE TO PINES  WEATHER ROUNDUP
NATIONAL WEATHER SERVICE EASTERN NORTH DAKOTA/GRAND FORKS ND
500 AM CST FRI DEC 19 2014

 **SATELLITE DATA USED TO AUGMENT SKY COVER AT AUTOMATED STATIONS**
 *****  WEATHER ACROSS EASTERN NORTH DAKOTA  *****

CITY           SKY/WX    TMP DP  RH WIND       PRES   REMARKS
GRAND FORKS    CLOUDY    21  19  92 S12       30.09F FOG     WCI   9
GRAND FRKS AFB FRZ DRZL  22  22 100 S10       30.08S FOG     WCI  11
DEVILS LAKE    CLOUDY    25  18  74 S9        29.97F WCI  15
FARGO          CLOUDY    24  21  88 S12       30.11F FOG     WCI  13
WAHPETON ARPT  CLOUDY    23  21  93 S8        30.13F WCI  14
$$

 ***** WEATHER ACROSS CENTRAL AND WESTERN NORTH DAKOTA  *****

CITY           SKY/WX    TMP DP  RH WIND       PRES   REMARKS
BISMARCK       CLOUDY    21  20  96 SE3       29.97F
MINOT          FOG       27  25  92 SE3       29.93S VSB 1/2
JAMESTOWN      CLOUDY    26  25  96 S12       30.00F FOG     WCI  16
MINOT AFB      FRZ DRZL  26  26 100 E2        29.93F
GARRISON         N/A     22  21  96 E3        29.92F
WILLISTON      FOG       23  21  92 CALM      29.92F VSB 1/4
DICKINSON      CLOUDY    32  25  75 W7        29.89S
HETTINGER      MOCLDY    26  22  84 CALM      29.93F
$$

 *****  OTHER AIRPORT OBSERVATIONS IN OUR AREA  *****

CITY           SKY/WX    TMP DP  RH WIND       PRES   REMARKS
WALHALLA         N/A     19  19 100 S12       30.05F FOG     WCI   7
GRAFTON AIRPOR NOT AVBL
VALLEY CITY AR CLOUDY    25  25 100 S7        30.04F FOG     WCI  17
CANDO          CLOUDY    23  23 100 SE8       29.98F FOG     WCI  14
CAVALIER APRT  CLOUDY    21  19  93 S10       30.07F FOG     WCI  10
GWINNER        CLOUDY    30  30 100 MISG      30.08F
SHEYENNE NWR     N/A     24  23  96 S7        29.95S WCI  16
ROLLA          CLOUDY    23  23 100 S5        29.96F FOG     WCI  17
 ***** THE ABOVE OBSERVATIONS ARE NON NWS ARE NOT QUALITY
       CONTROLLED AND MAY MIS-REPORT RAIN FOR SNOW...
$$

  *****  WEATHER ACROSS NORTHERN MINNESOTA  *****

CITY           SKY/WX    TMP DP  RH WIND       PRES   REMARKS
FLAG ISLAND    CLOUDY    19  16  86 S15       30.13F WCI   5
WARROAD        CLOUDY    19  16  86 SE9       30.13F WCI   9
ROSEAU         CLOUDY    21  16  79 S9        30.11F WCI  11
HALLOCK        CLOUDY    21  19  93 S14       30.08F WCI   8
THF RVR FALLS  CLOUDY    21  19  93 S9        30.10F WCI  11
BAUDETTE       CLOUDY    20  16  84 S6        30.13F WCI  12
WASKISH        FLURRIES  19  18  93 SE5       30.15S WCI  13
CROOKSTON      MOCLDY    21  19  93 S13       30.11F WCI   9
STEPHEN NDAWN    N/A     21  19  93 S13         N/A  WCI   9
GREENBUSH NDAW   N/A     21  18  86 S10         N/A  WCI  10
$$
  *****  WEATHER ACROSS CENTRAL AND WEST MINNESOTA  *****

CITY           SKY/WX    TMP DP  RH WIND       PRES   REMARKS
FOSSTON        LGT SNOW  19  18  93 SE8       30.11F WCI   9
BEMIDJI        LGT SNOW  19  16  89 SE5       30.14S WCI  12
PARK RAPIDS    CLOUDY    19  16  88 SE10      30.13F WCI   7
ELBOW LAKE     CLOUDY    22  21  97 SE12      30.13F FOG     WCI  10
WADENA         CLOUDY    19  18  93 NW9       30.14F WCI   9
DETROIT LAKES  FLURRIES  21  21 100 SE9       30.12F WCI  11
MOORHEAD       CLOUDY    25  25 100 S13       30.12F FOG     WCI  13
FERGUS FALLS   CLOUDY    21  21 100 SE10      30.16F FOG     WCI  10
MORRIS MN      MOCLDY    25  21  86 SE10      30.13F FOG     WCI  15
STAPLES        CLOUDY    18  16  93 SE5       30.16F WCI  11
$$
  *****  WEATHER ELSEWHERE ACROSS MINNESOTA  *****

CITY           SKY/WX    TMP DP  RH WIND       PRES   REMARKS
DULUTH         CLOUDY    20  17  88 W9        30.20S WCI   9
INTRNTL FALLS  CLOUDY    21  17  84 S3        30.17F
ELY            CLOUDY    21  18  86 S8        30.19S WCI  12
CLOQUET        CLOUDY    19  18  93 S7        30.21F WCI  10
WHEATON        CLOUDY    21  21 100 SE12      30.14F FOG     WCI   9
BRAINERD       LGT SNOW  19  16  88 SE6       30.19S FOG     WCI  11
HIBBING        CLOUDY    19  16  88 VRB5      30.19S WCI  12
ALEXANDRIA     CLOUDY    21  19  92 SE9       30.15F FOG     WCI  11
SAINT CLOUD    LGT SNOW  22  17  81 SE5       30.21F WCI  16
MINNEAPOLIS    CLOUDY    21  16  81 SE7       30.25F WCI  12
$$

  *****  WEATHER ACROSS SOUTH DAKOTA  *****

CITY           SKY/WX    TMP DP  RH WIND       PRES   REMARKS
SIOUX FALLS    CLOUDY    28  25  88 S8        30.14F WCI  20
BROOKINGS      NOT AVBL
WATERTOWN      CLOUDY    26  24  92 S15G21    30.07F WCI  14
HURON          CLOUDY    28  25  88 S8        30.09F WCI  20
SISSETON         N/A     25  25 100 S8        30.10F WCI  16
ABERDEEN       CLOUDY    28  24  85 S13       30.08F WCI  17
MITCHELL       CLOUDY    30  26  85 S13       30.11F WCI  20
PIERRE         PTCLDY    15  12  88 S8        30.02F FOG     WCI   4
MOBRIDGE       PTCLDY    22  20  92 SE10      29.96F WCI  11
RAPID CITY     PTCLDY    26  17  68 NW8       29.97F WCI  18
$$

  *****  SOME WEATHER IN NEARBY STATES *****

CITY           SKY/WX    TMP DP  RH WIND       PRES   REMARKS
GLASGOW MT     PTCLDY    18  15  88 CALM      29.91S
GREAT FALLS MT CLEAR     31  24  75 S12       29.88F WCI  22
CHEYENNE WY    CLEAR     24  12  60 SW10      30.03S WCI  14
SCOTTSBLUFF NE CLEAR      4   1  88 N3        30.06R
OMAHA NE       CLOUDY    31  28  89 SE6       30.23F
DES MOINES IA  CLOUDY    28  24  85 S3        30.26S
DAVENPORT IA   CLEAR     15  10  80 NE3       30.29F
CHICAGO IL     FLURRIES  28  23  81 N6        30.26S WCI  22
EAU CLAIRE WI  CLOUDY    23  18  81 SE5       30.26S WCI  17
LA CROSSE WI   CLOUDY    25  17  72 CALM      30.29F
$$

  *****  SOME NATIONAL WEATHER *****

CITY           SKY/WX    TMP DP  RH WIND       PRES   REMARKS
LA GUARDIA NY  CLOUDY    37  24  59 NW15G23   29.98R
RALEIGH NC     MOCLDY    40  30  67 CALM      30.13R
ATLANTA GA     MOCLDY    38  32  79 NW9       30.13R
NEW ORLEANS LA CLOUDY    57  50  77 E12       30.05S
OKLAHOMA CITY  DRZL/FOG  39  37  92 N7        30.17S VSB 3/4
ALBUQUERQUE NM CLEAR     33  26  75 N8        30.17S
SALT LAKE CITY CLOUDY    33  28  81 SE10      30.18S WCI  25
LOS ANGELES CA MOCLDY    51  47  86 NE3       30.21S
BOISE ID       CLOUDY    44  33  65 SE12      30.04F
SEATTLE WA     CLOUDY    47  44  90 S6        29.82R
$$

*** WEATHER ACROSS MANITOBA...SASKATCHEWAN AND ONTARIO ***
                ***ONTARIO***

CITY           SKY/WX    TMP DP  RH WIND       PRES   REMARKS
GERALDTON      CLEAR    -15 -18  84 NW1       30.26R
THUNDER BAY    CLEAR     -2  -4  92 SW5       30.32S WCI -12
SIOUX LOOKOUT  FLURRIES  16  12  86 SE6       30.17F WCI   7
TORONTO        CLOUDY    23  19  86 N13       30.15R WCI  11
BIG TROUT LK   CLEAR     -2  -6  84 SW3       30.16F
PICKLE LAKE    CLOUDY    12   9  85 S7        30.19  WCI   2
DRYDEN         CLOUDY    19  18  93 S7        30.15F WCI  10
KENORA         CLOUDY    18  14  86 S7        30.13F WCI   8
$$
                *** MANITOBA***

CITY           SKY/WX    TMP DP  RH WIND       PRES   REMARKS
BRANDON        CLOUDY    19  19 100 SE3       29.99F
DAUPHIN        CLOUDY    19  18  93 S6        30.00F WCI  11
ISLAND LAKE    NOT AVBL
PILOT MOUND      N/A     21  21 100 S3          N/A
THE PAS        CLOUDY    16  16 100 SE5       29.97S WCI   9
THOMPSON       FLURRIES   9   5  85 S2        29.99R
WINNIPEG       FRZ DRZL  21  19  93 S13       30.08F FOG     WCI   9
LYNN LAKE      FLURRIES  16  14  93 W7        29.89S WCI   6
CHURCHILL      FLURRIES   7   5  92 SW3       29.96S
GILLAM         LGT SNOW   9   5  85 SW7       30.01F WCI  -3
$$
                ***SASKATCHEWAN***

CITY           SKY/WX    TMP DP  RH WIND       PRES   REMARKS
ESTEVAN        NOT AVBL
KINDERSLEY     CLEAR      7   3  85 E2        29.87F FOG
LLOYDMINSTER   PTCLDY     7   5  92 E6        29.85F FOG     WCI  -3
PRINCE ALBERT  CLOUDY    18  16  93 NW6       29.93S WCI   9
REGINA         FOG       23  23 100 SW6       29.90S VSB 3/8 WCI  16
YORKTON        CLOUDY    21  19  93 SE6       29.92S FOG     WCI  14
N. BATTLEFORD  FOG       16  14  93 W3        29.94R VSB 1/4
LA RONGE       NOT AVBL
SASKATOON      FOG       18  16  93 W6        29.94F VSB 1/2 WCI   9
SWIFT CURRENT  CLEAR     16  14  93 SW10      29.85S WCI   3
$$
NOTE: THESE ARE AUTOMATED STATIONS WITH LIMITED QUALITY CONTROL
      "FAIR" INDICATES FEW OR NO CLOUDS BELOW 12,000 FEET WITH NO
      SIGNIFICANT WEATHER AND/OR OBSTRUCTIONS TO VISIBILITY.
      SKY/WX - SKY CONDITION AND SIGNIFICANT WEATHER.
      TMP - AIR TEMPERATURE.    DP   - DEWPOINT TEMPERATURE.
      RH  - RELATIVE HUMIDITY.  PRES - PRESSURE.
      HX  - HEAT INDEX.         WCI  - WIND CHILL INDEX.
$



USA.gov is the U.S. government's official web portal to all federal, state and local government web resources and services.